[[{"header":{"parameterUnit":"m.s-1","parameterCategory":1,"la1":30.2991,"la2":30.254,"lo1":-89.0895,"lo2":-89.0444,"dy":0.0017,"dx":0.0017,"nx":28,"ny":28,"refTime":"2025-04-16T03:00:00:Z","depth":0,"parameterNumber":2,"parameterNumberName":"U-component_of_WINDS"},"data":[0,0,0,0,0,0,0,0,0,0,0,0,0,0,0,0,0,0,0,0,0,0,0,0,0,0,0,0,0,0,0,0,0,0,0,0,0,0,0,0,0,0,0,0,0,0,0,0,0,0,0,0,0,0,0,0,0,0,-1.291,-1.291,0,-1.2977,-1.2977,-1.2978,-1.2898,-1.2895,-1.2892,-1.2889,-1.2962,-1.2967,-1.2971,0,0,0,0,0,0,0,0,0,0,0,0,0,-1.2716,-1.272,-1.291,-1.291,-1.2911,-1.2977,-1.2977,-1.2978,-1.2899,-1.2895,-1.2892,-1.2888,-1.2961,-1.2966,-1.2972,0,0,0,0,0,0,0,0,0,0,0,0,0,-1.2793,-1.2721,-1.2909,-1.2879,-1.2877,-1.2976,-1.2978,-1.2979,-1.29,-1.2895,-1.2891,-1.2886,-1.2959,-1.2966,-1.2973,-1.3106,0,0,-1.2994,-1.2997,0,0,0,0,0,0,0,0,-1.2789,-1.28,-1.2883,-1.2882,-1.2879,-1.2924,-1.2936,-1.3021,-1.2901,-1.2891,-1.2889,-1.2884,-1.2954,-1.2961,-1.2983,-1.3109,-1.3112,-1.2995,-1.2999,-1.3002,-1.3004,0,0,0,0,0,0,0,-1.2784,-1.2797,-1.2936,-1.2884,-1.2882,-1.2863,-1.287,-1.2952,-1.2947,-1.2892,-1.2886,-1.2895,-1.2952,-1.2977,-1.2984,-1.3113,-1.2995,-1.3001,-1.3005,-1.3008,-1.3353,-1.3358,0,0,0,0,0,0,-1.2781,-1.2793,-1.2934,-1.2938,-1.2822,-1.2871,-1.2877,-1.2915,-1.2946,-1.2946,-1.2899,-1.2891,-1.2967,-1.2976,-1.2987,-1.3146,-1.3002,-1.3009,-1.3013,-1.3349,-1.3355,-1.336,0,0,0,0,0,0,-1.2777,-1.2795,-1.2931,-1.2864,-1.288,-1.2879,-1.2921,-1.2918,-1.2943,-1.2951,-1.295,-1.2925,-1.2964,-1.2977,-1.3077,-1.3148,-1.3012,-1.3018,-1.3343,-1.335,-1.3357,-1.3466,0,0,0,0,0,0,-1.2772,-1.2794,-1.2844,-1.2866,-1.2884,-1.302,-1.2925,-1.2923,-1.2955,-1.2946,-1.2975,-1.2976,-1.2961,-1.3067,-1.3084,-1.3155,-1.3024,-1.3336,-1.3346,-1.3355,-1.3456,-1.3477,-1.3494,0,0,0,0,0,-1.2766,-1.2872,-1.2847,-1.2864,-1.2946,-1.3024,-1.3035,-1.3015,-1.2961,-1.3012,-1.3017,-1.2975,-1.3136,-1.3078,-1.3096,-1.3171,-1.3332,-1.3343,-1.3354,-1.3448,-1.3473,-1.3493,0,0,0,0,0,0,-1.286,-1.2875,-1.2846,-1.2963,-1.2993,-1.301,-1.3074,-1.3041,-1.3087,-1.3077,-1.305,-1.3058,-1.3165,-1.3177,-1.3111,-1.3302,-1.3226,-1.3241,-1.3291,-1.3314,-1.3332,-1.3329,-1.303,0,0,0,0,0,-1.2894,-1.2955,-1.2965,-1.3067,-1.3083,-1.3076,-1.3109,-1.3091,-1.3121,-1.3134,-1.3146,-1.3178,-1.3236,-1.3275,-1.3329,-1.3456,-1.3463,-1.3517,-1.3535,-1.3551,-1.3565,-1.3636,-1.3661,-1.3396,-1.3396,-1.3396,0,0,-1.2966,-1.2981,-1.3022,-1.3086,-1.3107,-1.3172,-1.3087,-1.316,-1.3208,-1.3145,-1.3241,-1.3251,-1.3285,-1.34,-1.3451,-1.3414,-1.3639,-1.3565,-1.3577,-1.3583,-1.365,-1.3675,-1.3697,-1.3404,-1.3403,-1.3401,0,0,-1.3131,-1.3147,-1.3235,-1.3257,-1.329,-1.3284,-1.3305,-1.3328,-1.3332,-1.3427,-1.3381,-1.3438,-1.3538,-1.3565,-1.3592,-1.3766,-1.373,-1.3784,-1.3883,-1.3951,-1.3972,-1.3991,-1.4056,-1.4079,-1.3797,-1.3798,-1.3798,0,-1.3217,-1.3312,-1.3285,-1.3361,-1.3391,-1.3335,-1.3425,-1.3448,-1.3497,-1.352,-1.3476,-1.36,-1.3619,-1.3741,-1.3783,-1.3805,-1.383,-1.3782,-1.3971,-1.3989,-1.4006,-1.4068,-1.4092,-1.3804,-1.3804,-1.3803,-1.3802,0,-1.3417,-1.3484,-1.3551,-1.3599,-1.3636,-1.3719,-1.3705,-1.3747,-1.3724,-1.3724,-1.3822,-1.3842,-1.39,-1.3926,-1.3906,-1.4046,-1.4022,-1.3975,-1.3898,-1.4039,-1.4096,-1.4119,-1.3814,-1.3811,-1.3809,-1.3808,0,0,-1.3646,-1.3676,-1.3702,-1.3724,-1.3754,-1.3806,-1.3886,-1.3941,-1.3978,-1.4013,-1.4081,-1.4166,-1.4123,-1.4153,-1.4135,-1.4195,-1.4335,-1.4141,-1.4141,-1.4179,-1.4493,-1.453,-1.4558,-1.4309,-1.4313,-1.4317,-1.4491,0,-1.3814,-1.3952,-1.3929,-1.4064,-1.4126,-1.4073,-1.4143,-1.417,-1.4171,-1.4225,-1.4226,-1.4288,-1.4225,-1.4244,-1.43,-1.4306,-1.4398,-1.4292,-1.4375,-1.4378,-1.4372,-1.4587,-1.4627,-1.4791,-1.4513,-1.4517,-1.4519,0,-1.4028,-1.407,-1.4211,-1.4232,-1.4257,-1.4321,-1.437,-1.4421,-1.4451,-1.4448,-1.4481,-1.4452,-1.4533,-1.4452,-1.4565,-1.4494,-1.4526,-1.4533,-1.4539,-1.4549,-1.446,-1.4607,-1.4842,-1.4868,-1.4554,-1.4551,-1.4549,0,-1.4185,-1.4276,-1.4373,-1.4392,-1.4419,-1.4465,-1.4478,-1.4503,-1.4538,-1.4581,-1.4603,-1.4655,-1.4685,-1.4726,-1.4712,-1.4654,-1.4829,-1.4746,-1.483,-1.4831,-1.4873,-1.4871,-1.5121,-1.4888,-1.4887,-1.4887,-1.4886,0,-1.4376,-1.4465,-1.4444,-1.4504,-1.4602,-1.4575,-1.4673,-1.468,-1.4703,-1.4764,-1.472,-1.4778,-1.4754,-1.4811,-1.48,-1.4897,-1.491,-1.4911,-1.4908,-1.4917,-1.4918,-1.4941,-1.493,-1.4893,-1.4892,-1.4891,-1.489,0,-1.457,-1.4559,-1.4661,-1.4677,-1.4683,-1.4755,-1.477,-1.4826,-1.4823,-1.4901,-1.4918,-1.4914,-1.4979,-1.4967,-1.5039,-1.5032,-1.5154,-1.5135,-1.5144,-1.5141,-1.5227,-1.5221,-1.5503,-1.554,-1.528,-1.5283,-1.5285,0,-1.4695,-1.4762,-1.4785,-1.4822,-1.4839,-1.4899,-1.4934,-1.491,-1.4948,-1.4987,-1.504,-1.51,-1.5148,-1.5255,-1.5259,-1.5314,-1.5299,-1.5393,-1.5307,-1.5315,-1.5304,-1.5302,-1.531,-1.5412,-1.5415,-1.5418,-1.542,0,-1.4919,-1.491,-1.4961,-1.5011,-1.5054,-1.5092,-1.5126,-1.5159,-1.5138,-1.5183,-1.5249,-1.5286,-1.5359,-1.5421,-1.5472,-1.5487,-1.5452,-1.5446,-1.5469,-1.5482,-1.5486,-1.5488,-1.5195,-1.5441,-1.5439,-1.5437,-1.5436,-1.5435,-1.5084,-1.5142,-1.5167,-1.5226,-1.5249,-1.5282,-1.5336,-1.5339,-1.5393,-1.545,-1.5432,-1.5508,-1.5536,-1.5601,-1.5621,-1.5681,-1.5646,-1.5678,-1.5687,-1.5697,-1.5709,-1.5473,-1.5689,-1.5689,-1.5688,-1.5688,-1.5687,0,-1.5308,-1.5322,-1.5376,-1.5425,-1.5472,-1.5431,-1.5466,-1.5509,-1.5575,-1.5604,-1.5651,-1.5727,-1.5787,-1.5795,-1.5852,-1.5898,-1.5883,-1.5914,-1.5912,-1.5917,-1.5735,-1.5711,-1.5925,-1.5925,-1.5925,-1.5925,-1.5925,-1.5925,-1.5431,-1.5527,-1.5521,-1.5628,-1.5641,-1.5714,-1.5738,-1.5768,-1.5791,-1.5878,-1.5927,-1.5931,-1.5952,-1.601,-1.6063,-1.6064,-1.6088,-1.6127,-1.6122,-1.5953,-1.5929,-1.5907,-1.5884,-1.6131,-1.6131,-1.6299,-1.63,-1.6301]},{"header":{"parameterUnit":"m.s-1","parameterCategory":1,"la1":30.2991,"la2":30.254,"lo1":-89.0895,"lo2":-89.0444,"dy":0.0017,"dx":0.0017,"nx":28,"ny":28,"refTime":"2025-04-16T03:00:00:Z","depth":0,"parameterNumber":3,"parameterNumberName":"V-component_of_WINDS"},"data":[0,0,0,0,0,0,0,0,0,0,0,0,0,0,0,0,0,0,0,0,0,0,0,0,0,0,0,0,0,0,0,0,0,0,0,0,0,0,0,0,0,0,0,0,0,0,0,0,0,0,0,0,0,0,0,0,0,0,-3.8187,-3.8187,0,-3.8258,-3.8258,-3.8259,-3.8201,-3.8199,-3.8196,-3.8194,-3.8266,-3.827,-3.8274,0,0,0,0,0,0,0,0,0,0,0,0,0,-3.7999,-3.8003,-3.8186,-3.8187,-3.8188,-3.8258,-3.8258,-3.8259,-3.8201,-3.8198,-3.8195,-3.8193,-3.8265,-3.827,-3.8275,0,0,0,0,0,0,0,0,0,0,0,0,0,-3.8076,-3.8004,-3.8186,-3.8168,-3.8167,-3.8257,-3.8259,-3.826,-3.8202,-3.8198,-3.8195,-3.8191,-3.8263,-3.8269,-3.8275,-3.8388,0,0,-3.8295,-3.8297,0,0,0,0,0,0,0,0,-3.8072,-3.8083,-3.817,-3.8169,-3.8168,-3.8217,-3.8219,-3.8303,-3.8203,-3.8189,-3.8194,-3.8189,-3.8253,-3.8259,-3.8281,-3.8391,-3.8394,-3.8295,-3.8299,-3.8302,-3.8304,0,0,0,0,0,0,0,-3.8067,-3.808,-3.8215,-3.8171,-3.817,-3.8155,-3.8162,-3.8234,-3.824,-3.819,-3.8186,-3.8195,-3.8251,-3.8275,-3.8282,-3.8395,-3.8295,-3.8301,-3.8305,-3.8307,-3.8601,-3.8605,0,0,0,0,0,0,-3.8063,-3.8076,-3.8212,-3.8217,-3.811,-3.8162,-3.8169,-3.8205,-3.8239,-3.8241,-3.8198,-3.8192,-3.8266,-3.8275,-3.8284,-3.8418,-3.8302,-3.8308,-3.8311,-3.8597,-3.8602,-3.8606,0,0,0,0,0,0,-3.806,-3.8076,-3.8209,-3.8145,-3.8161,-3.8169,-3.8209,-3.8208,-3.8232,-3.8246,-3.8246,-3.8221,-3.8263,-3.8276,-3.8362,-3.842,-3.831,-3.8316,-3.8592,-3.8598,-3.8604,-3.8686,0,0,0,0,0,0,-3.8055,-3.8075,-3.8118,-3.8147,-3.8165,-3.8287,-3.8213,-3.8212,-3.8243,-3.8235,-3.8267,-3.8269,-3.8261,-3.8353,-3.8369,-3.8426,-3.8321,-3.8587,-3.8595,-3.8602,-3.8678,-3.8694,-3.8708,0,0,0,0,0,-3.8048,-3.8139,-3.8121,-3.8138,-3.8219,-3.829,-3.8301,-3.829,-3.8248,-3.8291,-3.83,-3.8268,-3.8411,-3.8363,-3.838,-3.844,-3.8583,-3.8593,-3.8601,-3.8672,-3.8691,-3.8708,0,0,0,0,0,0,-3.8117,-3.8142,-3.8123,-3.8225,-3.8256,-3.828,-3.8335,-3.8311,-3.8355,-3.8346,-3.8331,-3.8338,-3.843,-3.8443,-3.8389,-3.855,-3.849,-3.8503,-3.8538,-3.8557,-3.8571,-3.8566,-3.8326,0,0,0,0,0,-3.8144,-3.82,-3.8219,-3.8308,-3.8324,-3.8327,-3.8358,-3.8347,-3.8378,-3.8391,-3.8406,-3.8437,-3.8489,-3.8524,-3.8572,-3.868,-3.8686,-3.873,-3.8744,-3.8757,-3.8768,-3.8825,-3.8845,-3.8636,-3.8636,-3.8635,0,0,-3.8201,-3.8222,-3.8258,-3.8322,-3.8345,-3.8403,-3.8338,-3.8403,-3.8445,-3.8401,-3.8483,-3.8496,-3.853,-3.8627,-3.8671,-3.8642,-3.8827,-3.8768,-3.8778,-3.8782,-3.8836,-3.8856,-3.8874,-3.8642,-3.8641,-3.864,0,0,-3.8334,-3.8356,-3.8431,-3.8455,-3.849,-3.8491,-3.851,-3.8538,-3.8544,-3.8627,-3.8594,-3.8645,-3.8734,-3.8759,-3.8784,-3.8926,-3.8898,-3.8942,-3.9019,-3.9075,-3.9092,-3.9106,-3.9156,-3.9174,-3.8953,-3.8954,-3.8954,0,-3.84,-3.8486,-3.8473,-3.854,-3.8569,-3.8531,-3.8607,-3.8631,-3.868,-3.8701,-3.8667,-3.8778,-3.8798,-3.8901,-3.8936,-3.8957,-3.8977,-3.8938,-3.909,-3.9105,-3.9118,-3.9166,-3.9185,-3.8959,-3.8958,-3.8957,-3.8957,0,-3.8565,-3.8626,-3.8683,-3.8731,-3.8766,-3.8838,-3.8835,-3.8872,-3.8859,-3.8863,-3.8947,-3.897,-3.9022,-3.9046,-3.9033,-3.9147,-3.9127,-3.9092,-3.9032,-3.9143,-3.9188,-3.9206,-3.8966,-3.8964,-3.8962,-3.8961,0,0,-3.8744,-3.8784,-3.8805,-3.8826,-3.8862,-3.8908,-3.8977,-3.9028,-3.906,-3.9095,-3.9152,-3.9229,-3.9196,-3.9224,-3.9214,-3.9263,-3.9373,-3.9222,-3.9222,-3.9249,-3.9499,-3.9525,-3.9547,-3.9355,-3.9359,-3.9361,-3.9496,0,-3.8878,-3.8999,-3.8989,-3.9103,-3.9158,-3.9122,-3.9182,-3.921,-3.9216,-3.9264,-3.927,-3.9324,-3.9278,-3.9294,-3.9341,-3.935,-3.9423,-3.934,-3.9408,-3.941,-3.94,-3.957,-3.9598,-3.9724,-3.9514,-3.9517,-3.9519,0,-3.9051,-3.9092,-3.9211,-3.9237,-3.926,-3.9315,-3.936,-3.9406,-3.9437,-3.9437,-3.9469,-3.945,-3.9519,-3.9457,-3.9551,-3.9495,-3.9522,-3.953,-3.9535,-3.954,-3.9471,-3.958,-3.9764,-3.9783,-3.9546,-3.9544,-3.9542,0,-3.9168,-3.9253,-3.9335,-3.9355,-3.9388,-3.9427,-3.9442,-3.9469,-3.95,-3.954,-3.956,-3.9607,-3.9633,-3.967,-3.9664,-3.9619,-3.976,-3.9698,-3.9762,-3.9763,-3.9793,-3.9791,-3.9984,-3.9812,-3.9811,-3.9811,-3.9811,0,-3.9319,-3.9393,-3.9389,-3.9439,-3.9521,-3.9509,-3.959,-3.9601,-3.9625,-3.9677,-3.9649,-3.9698,-3.9687,-3.9736,-3.9732,-3.981,-3.9822,-3.9824,-3.9822,-3.9827,-3.9827,-3.9844,-3.9835,-3.9816,-3.9815,-3.9814,-3.9813,0,-3.9464,-3.9464,-3.9551,-3.9575,-3.9583,-3.9642,-3.9663,-3.971,-3.9713,-3.9779,-3.9794,-3.9799,-3.9855,-3.9853,-3.9916,-3.9913,-4.0009,-3.9997,-3.9999,-3.9996,-4.0061,-4.0055,-4.0271,-4.0299,-4.0109,-4.0111,-4.0112,0,-3.956,-3.9616,-3.9646,-3.9679,-3.9697,-3.975,-3.9781,-3.9771,-3.9805,-3.9844,-3.9886,-3.994,-3.9981,-4.0072,-4.0081,-4.0129,-4.0118,-4.0191,-4.0125,-4.0128,-4.0118,-4.0115,-4.012,-4.0203,-4.0206,-4.0207,-4.0209,0,-3.973,-3.9727,-3.9773,-3.982,-3.9858,-3.9895,-3.9928,-3.9956,-3.9949,-3.9988,-4.0045,-4.0077,-4.0142,-4.0195,-4.0241,-4.0256,-4.0231,-4.0229,-4.0247,-4.0252,-4.025,-4.0251,-4.0034,-4.0224,-4.0223,-4.0222,-4.0221,-4.022,-3.9853,-3.9901,-3.993,-3.9982,-4.0006,-4.0037,-4.0083,-4.0092,-4.0139,-4.019,-4.0181,-4.0245,-4.0273,-4.0332,-4.0352,-4.0401,-4.0375,-4.04,-4.0407,-4.0413,-4.042,-4.0243,-4.0409,-4.0409,-4.0408,-4.0408,-4.0408,0,-4.0021,-4.0037,-4.0086,-4.0133,-4.0174,-4.0147,-4.0182,-4.0218,-4.0275,-4.0303,-4.0345,-4.041,-4.0461,-4.0474,-4.0523,-4.056,-4.055,-4.0573,-4.057,-4.0574,-4.0441,-4.0421,-4.058,-4.058,-4.058,-4.058,-4.058,-4.058,-4.0113,-4.0193,-4.0193,-4.0284,-4.03,-4.0362,-4.0384,-4.0413,-4.0435,-4.0509,-4.0551,-4.0559,-4.0582,-4.0632,-4.0677,-4.068,-4.0699,-4.0727,-4.0725,-4.06,-4.0583,-4.0567,-4.0548,-4.0731,-4.0731,-4.0854,-4.0855,-4.0856]}]]